Location: Pilipovskiye Korichintsy
(49.1833°N, 27.4667°E)
Time: 21:34:22
(UTC+00:00)

Aureole 1 Rocket - Pass Details

Date: 14 July 2020
Orbit: 377 x 1380 km, 73.9° (Epoch: 10 August)

Event Time Altitude Azimuth Distance (km) Brightness Sun altitude
Exits shadow 00:43:25 17° 213° (SSW) 1,688 4.6 -12.0°
Maximum altitude 00:47:05 73° 296° (WNW) 829 3.6 -11.6°
Drops below altitude 10° 00:53:21 10° 22° (NNE) 2,745 7.7 -11.0°
Sets 00:56:18 0° 24° (NNE) 3,865 8.9 -10.7°
